sat.trackr.live / text

‹ back to catalog

QZS-1R (QZSS/PRN 196)

NORAD 49336 · 2021-096A

PAYLOAD ACTIVE UNKNOWN

§ Identity

Operator
Country
JPN
Launch date
2021-10-26
Launch site
TANSC
Launch vehicle
Mass (kg)
RCS (m²)

Purposes: comms, nav

External: N2YO · Heavens-Above · Gunter

§ Orbital elements

Epoch: 2026-05-24T16:22:25.859136Z

Period
1,436.21 min
Inclination
37.4165°
Eccentricity
0.0753260
Mean motion
1.00263785 rev/d
Perigee alt
32,612.6 km
Apogee alt
38,965.1 km
Semi-major
42,167.0 km
B*
0.0000e+0
RAAN
79.9290°
Arg perigee
271.3756°
Mean anomaly
271.7509°
Rev number
1,677

§ Raw data

QZS-1R (QZSS/PRN 196)1 49336U 21096A   26144.68224374 -.00000265  00000+0  00000+0 0  99982 49336  37.4165  79.9290 0753260 271.3756 271.7509  1.00263785 16777

JSON: /api/v1/satellites/49336 · /tle

For live sub-satellite position, see the globe view (requires WebGL).

§ Visibility from observer

Set your observer location to see the next 7 days of passes ≥ 10°. The values pass through the URL so the page stays shareable.

No JS? Fill the form by hand. The geolocation button needs JavaScript.